H1 CPF 2 NER 2024 11 22 9 327 01 glonass139 H2 1808601 9139 43687 2024 11 22 0 0 0 2024 11 25 23 45 0 900 1 1 0 0 0 1 H9 10 0 60636 0.00000 0 15389068.963 2439876.455 -20179323.777 10 0 60636 900.00000 0 13163746.531 3737085.379 -21510708.269 10 0 60636 1800.00000 0 10924734.339 5270994.423 -22423666.442 10 0 60636 2700.00000 0 8735440.837 7015960.532 -22900446.557 10 0 60636 3600.00000 0 6654414.187 8935126.208 -22931790.257 10 0 60636 4500.00000 0 4733065.971 10981769.357 -22517111.631 10 0 60636 5400.00000 0 3013709.471 13101081.447 -21664506.775 10 0 60636 6300.00000 0 1527993.730 15232300.168 -20390593.863 10 0 60636 7200.00000 0 295797.915 17311107.786 -18720186.883 10 0 60636 8100.00000 0 -675368.976 19272195.161 -16685809.528 10 0 60636 9000.00000 0 -1390439.344 21051884.341 -14327058.692 10 0 60636 9900.00000 0 -1866327.650 22590700.047 -11689830.104 10 0 60636 10800.00000 0 -2130961.474 23835782.415 -8825421.314 10 0 60636 11700.00000 0 -2221845.338 24743040.019 -5789529.719 10 0 60636 12600.00000 0 -2184219.394 25278952.988 -2641165.484 10 0 60636 13500.00000 0 -2068892.088 25421950.888 558499.038 10 0 60636 14400.00000 0 -1929839.618 25163307.862 3747320.618 10 0 60636 15300.00000 0 -1821674.673 24507517.955 6863393.513 10 0 60636 16200.00000 0 -1797092.265 23472135.437 9846251.085 10 0 60636 17100.00000 0 -1904401.190 22087087.360 12638037.171 10 0 60636 18000.00000 0 -2185245.768 20393487.726 15184624.461 10 0 60636 18900.00000 0 -2672614.266 18442003.284 17436658.490 10 0 60636 19800.00000 0 -3389218.103 16290839.509 19350507.538 10 0 60636 20700.00000 0 -4346310.278 14003430.811 20889100.725 10 0 60636 21600.00000 0 -5542992.954 11645931.006 22022638.946 10 0 60636 22500.00000 0 -6966043.753 9284607.916 22729165.765 10 0 60636 23400.00000 0 -8590268.739 6983249.695 22994988.025 10 0 60636 24300.00000 0 -10379368.288 4800689.622 22814938.680 10 0 60636 25200.00000 0 -12287280.867 2788551.054 22192477.132 10 0 60636 26100.00000 0 -14259949.937 989305.062 21139625.182 10 0 60636 27000.00000 0 -16237441.708 -565279.679 19676739.568 10 0 60636 27900.00000 0 -18156326.758 -1855231.303 17832124.887 10 0 60636 28800.00000 0 -19952227.363 -2872968.756 15641493.587 10 0 60636 29700.00000 0 -21562425.142 -3623371.343 13147282.522 10 0 60636 30600.00000 0 -22928420.717 -4123321.484 10397838.299 10 0 60636 31500.00000 0 -23998338.538 -4400740.304 7446486.320 10 0 60636 32400.00000 0 -24729076.087 -4493156.919 4350500.881 10 0 60636 33300.00000 0 -25088106.878 -4445872.034 1169995.818 10 0 60636 34200.00000 0 -25054860.885 -4309793.671 -2033242.841 10 0 60636 35100.00000 0 -24621623.490 -4139036.972 -5196959.418 10 0 60636 36000.00000 0 -23793914.239 -3988390.198 -8259642.526 10 0 60636 36900.00000 0 -22590328.514 -3910754.962 -11161726.184 10 0 60636 37800.00000 0 -21041847.967 -3954670.005 -13846754.062 10 0 60636 38700.00000 0 -19190647.966 -4162024.376 -16262483.526 10 0 60636 39600.00000 0 -17088451.690 -4566057.917 -18361907.353 10 0 60636 40500.00000 0 -14794499.544 -5189734.774 -20104172.782 10 0 60636 41400.00000 0 -12373218.790 -6044559.806 -21455379.747 10 0 60636 42300.00000 0 -9891690.848 -7129888.963 -22389242.599 10 0 60636 43200.00000 0 -7417022.022 -8432763.752 -22887602.495 10 0 60636 44100.00000 0 -5013727.315 -9928277.770 -22940780.591 10 0 60636 45000.00000 0 -2741236.270 -11580460.734 -22547765.353 10 0 60636 45900.00000 0 -651624.442 -13343643.629 -21716230.497 10 0 60636 46800.00000 0 1212335.523 -15164248.310 -20462383.359 10 0 60636 47700.00000 0 2818722.729 -16982926.910 -18810646.739 10 0 60636 48600.00000 0 4147553.216 -18736961.647 -16793180.486 10 0 60636 49500.00000 0 5191357.488 -20362824.574 -14449252.166 10 0 60636 50400.00000 0 5955227.674 -21798789.934 -11824469.168 10 0 60636 51300.00000 0 6456334.018 -22987489.484 -8969887.348 10 0 60636 52200.00000 0 6722932.745 -23878303.489 -5941013.760 10 0 60636 53100.00000 0 6792908.704 -24429486.899 -2796723.273 10 0 60636 54000.00000 0 6711915.882 -24609941.423 401889.467 10 0 60636 54900.00000 0 6531195.644 -24400559.150 3592699.929 10 0 60636 55800.00000 0 6305166.125 -23795081.432 6713761.835 10 0 60636 56700.00000 0 6088885.582 -22800437.262 9704509.728 10 0 60636 57600.00000 0 5935497.606 -21436547.226 12506932.432 10 0 60636 58500.00000 0 5893766.566 -19735601.553 15066694.600 10 0 60636 59400.00000 0 6005807.562 -17740842.735 17334184.869 10 0 60636 60300.00000 0 6305106.667 -15504903.621 19265470.850 10 0 60636 61200.00000 0 6814914.889 -13087770.300 20823143.096 10 0 60636 62100.00000 0 7547083.426 -10554454.259 21977032.607 10 0 60636 63000.00000 0 8501389.324 -7972470.079 22704788.842 10 0 60636 63900.00000 0 9665380.170 -5409222.654 22992307.879 10 0 60636 64800.00000 0 11014744.939 -2929411.387 22834003.089 10 0 60636 65700.00000 0 12514196.350 -592557.863 22232913.455 10 0 60636 66600.00000 0 14118828.889 1549241.586 21200647.533 10 0 60636 67500.00000 0 15775896.963 3453246.389 19757163.852 10 0 60636 68400.00000 0 17426940.135 5087606.242 17930391.446 10 0 60636 69300.00000 0 19010167.788 6432436.750 15755697.042 10 0 60636 70200.00000 0 20463004.458 7480392.236 13275208.274 10 0 60636 71100.00000 0 21724690.061 8236712.475 10537005.033 10 0 60636 72000.00000 0 22738826.367 8718741.930 7594193.719 10 0 60636 72900.00000 0 23455762.956 8954942.099 4503881.674 10 0 60636 73800.00000 0 23834722.058 8983438.888 1326071.181 10 0 60636 74700.00000 0 23845572.287 8850166.600 -1877505.594 10 0 60636 75600.00000 0 23470175.708 8606687.326 -5044587.952 10 0 60636 76500.00000 0 22703250.473 8307778.435 -8113600.566 10 0 60636 77400.00000 0 21552711.542 8008890.876 -11024855.730 10 0 60636 78300.00000 0 20039474.062 7763586.641 -13721719.881 10 0 60636 79200.00000 0 18196726.612 7621064.710 -16151721.031 10 0 60636 80100.00000 0 16068704.040 7623881.143 -18267574.932 10 0 60636 81000.00000 0 13709010.660 7805960.675 -20028109.519 10 0 60636 81900.00000 0 11178563.560 8190984.800 -21399069.385 10 0 60636 82800.00000 0 8543241.726 8791225.330 -22353784.458 10 0 60636 83700.00000 0 5871338.920 9606873.437 -22873689.895 10 0 60636 84600.00000 0 3230926.347 10625893.224 -22948687.230 10 0 60636 85500.00000 0 687234.813 11824406.642 -22577339.867 10 0 60637 0.00000 0 -1699834.747 13167593.982 -21766899.433 10 0 60637 900.00000 0 -3877970.436 14611073.288 -20533162.081 10 0 60637 1800.00000 0 -5804381.697 16102699.220 -18900158.832 10 0 60637 2700.00000 0 -7447329.386 17584708.348 -16899684.612 10 0 60637 3600.00000 0 -8787187.704 18996119.125 -14570676.156 10 0 60637 4500.00000 0 -9816996.269 20275286.260 -11958450.632 10 0 60637 5400.00000 0 -10542480.580 21362501.943 -9113819.986 10 0 60637 6300.00000 0 -10981541.687 22202534.323 -6092098.454 10 0 60637 7200.00000 0 -11163238.219 22746996.287 -2952022.909 10 0 60637 8100.00000 0 -11126305.333 22956444.673 245392.547 10 0 60637 9000.00000 0 -10917274.557 22802121.489 3438045.009 10 0 60637 9900.00000 0 -10588275.263 22267263.857 6563950.632 10 0 60637 10800.00000 0 -10194611.720 21347927.591 9562448.094 10 0 60637 11700.00000 0 -9792218.901 20053289.914 12375374.090 10 0 60637 12600.00000 0 -9435105.023 18405418.657 14948187.993 10 0 60637 13500.00000 0 -9172889.031 16438517.635 17231024.143 10 0 60637 14400.00000 0 -9048536.876 14197679.660 19179651.863 10 0 60637 15300.00000 0 -9096391.861 11737198.995 20756325.266 10 0 60637 16200.00000 0 -9340581.693 9118513.127 21930507.268 10 0 60637 17100.00000 0 -9793869.089 6407858.778 22679454.694 10 0 60637 18000.00000 0 -10456994.120 3673738.692 22988653.916 10 0 60637 18900.00000 0 -11318536.089 984303.206 22852099.330 10 0 60637 19800.00000 0 -12355301.158 -1595246.002 22272409.619 10 0 60637 20700.00000 0 -13533220.201 -4005123.601 21260779.678 10 0 60637 21600.00000 0 -14808720.165 -6193198.654 19836768.880 10 0 60637 22500.00000 0 -16130512.610 -8116911.334 18027929.205 10 0 60637 23400.00000 0 -17441725.548 -9744789.676 15869279.660 10 0 60637 24300.00000 0 -18682290.257 -11057504.139 13402636.210 10 0 60637 25200.00000 0 -19791483.725 -12048416.712 10675809.187 10 0 60637 26100.00000 0 -20710520.504 -12723602.161 7741682.862 10 0 60637 27000.00000 0 -21385085.160 -13101340.964 4657194.287 10 0 60637 27900.00000 0 -21767698.593 -13211105.617 1482230.737 10 0 60637 28800.00000 0 -21819817.957 -13092083.289 -1721532.969 10 0 60637 29700.00000 0 -21513580.858 -12791297.491 -4891834.571 10 0 60637 30600.00000 0 -20833119.145 -12361408.524 -7967038.187 10 0 60637 31500.00000 0 -19775385.699 -11858286.197 -10887337.631 10 0 60637 32400.00000 0 -18350458.054 -11338458.115 -13595925.152 10 0 60637 33300.00000 0 -16581304.786 -10856542.208 -16040102.192 10 0 60637 34200.00000 0 -14503023.351 -10462772.849 -18172309.896 10 0 60637 35100.00000 0 -12161580.364 -10200725.954 -19951058.865 10 0 60637 36000.00000 0 -9612106.260 -10105339.913 -21341739.781 10 0 60637 36900.00000 0 -6916815.085 -10201316.602 -22317298.955 10 0 60637 37800.00000 0 -4142635.794 -10501970.519 -22858765.725 10 0 60637 38700.00000 0 -1358653.457 -11008575.044 -22955621.529 10 0 60637 39600.00000 0 1366533.333 -11710233.758 -22606003.658 10 0 60637 40500.00000 0 3967429.228 -12584282.511 -21816739.893 10 0 60637 41400.00000 0 6384124.597 -13597205.536 -20603213.497 10 0 60637 42300.00000 0 8564540.927 -14706027.141 -18989061.266 10 0 60637 43200.00000 0 10466346.395 -15860120.431 -17005710.583 10 0 60637 44100.00000 0 12058462.736 -17003356.876 -14691764.520 10 0 60637 45000.00000 0 13322101.592 -18076506.053 -12092247.019 10 0 60637 45900.00000 0 14251288.450 -19019784.276 -9257722.990 10 0 60637 46800.00000 0 14852853.705 -19775444.466 -6243310.648 10 0 60637 47700.00000 0 15145892.863 -20290297.806 -3107605.652 10 0 60637 48600.00000 0 15160720.248 -20518060.599 88461.603 10 0 60637 49500.00000 0 14937361.855 -20421427.153 3282812.877 10 0 60637 50400.00000 0 14523652.353 -19973781.139 6413429.588 10 0 60637 51300.00000 0 13973017.737 -19160473.198 9419557.099 10 0 60637 52200.00000 0 13342038.200 -17979610.925 12242882.184 10 0 60637 53100.00000 0 12687894.676 -16442327.918 14828660.770 10 0 60637 54000.00000 0 12065807.143 -14572520.438 17126774.314 10 0 60637 54900.00000 0 11526572.649 -12406062.439 19092694.846 10 0 60637 55800.00000 0 11114306.578 -9989531.368 20688340.610 10 0 60637 56700.00000 0 10864481.796 -7378497.290 21882806.614 10 0 60637 57600.00000 0 10802347.656 -4635445.766 22652956.812 10 0 60637 58500.00000 0 10941794.876 -1827419.833 22983867.298 10 0 60637 59400.00000 0 11284713.654 976522.158 22869112.592 10 0 60637 60300.00000 0 11820871.922 3707928.760 22310889.905 10 0 60637 61200.00000 0 12528319.068 6301550.241 21319979.079 10 0 60637 62100.00000 0 13374298.692 8697799.761 19915538.746 10 0 60637 63000.00000 0 14316632.824 10844980.038 18124742.114 10 0 60637 63900.00000 0 15305520.384 12701184.084 15982258.637 10 0 60637 64800.00000 0 16285675.214 14235791.852 13529590.675 10 0 60637 65700.00000 0 17198714.644 15430501.159 10814276.982 10 0 60637 66600.00000 0 17985698.665 16279850.328 7888977.584 10 0 60637 67500.00000 0 18589713.090 16791211.087 4810457.053 10 0 60637 68400.00000 0 18958387.763 16984252.320 1638485.403 10 0 60637 69300.00000 0 19046243.165 16889897.435 -1565322.183 10 0 60637 70200.00000 0 18816765.635 16548819.562 -4738704.158 10 0 60637 71100.00000 0 18244122.525 16009538.347 -7819966.280 10 0 60637 72000.00000 0 17314443.636 15326199.097 -10749185.945 10 0 60637 72900.00000 0 16026613.478 14556128.635 -13469383.112 10 0 60637 73800.00000 0 14392539.509 13757271.711 -15927634.339 10 0 60637 74700.00000 0 12436883.674 12985616.923 -18076107.659 10 0 60637 75600.00000 0 10196267.252 12292721.547 -19872997.638 10 0 60637 76500.00000 0 7717981.206 11723440.314 -21283342.175 10 0 60637 77400.00000 0 5058255.120 11313954.504 -22279704.946 10 0 60637 78300.00000 0 2280156.313 11090184.823 -22842710.277 10 0 60637 79200.00000 0 -548793.841 11066655.175 -22961420.133 10 0 60637 80100.00000 0 -3359187.501 11245855.323 -22633546.060 10 0 60637 81000.00000 0 -6082375.400 11618129.261 -21865492.147 10 0 60637 81900.00000 0 -8653079.712 12162093.864 -20672228.311 10 0 60637 82800.00000 0 -11011866.461 12845570.037 -19076996.461 10 0 60637 83700.00000 0 -13107375.154 13626986.840 -17110855.324 10 0 60637 84600.00000 0 -14898213.495 14457199.149 -14812072.813 10 0 60637 85500.00000 0 -16354439.028 15281641.877 -12225377.830 10 0 60638 0.00000 0 -17458566.842 16042729.419 -9401086.437 10 0 60638 900.00000 0 -18206062.988 16682399.084 -6394118.050 10 0 60638 1800.00000 0 -18605302.956 17144689.706 -3262924.947 10 0 60638 2700.00000 0 -18677000.410 17378247.528 -68351.310 10 0 60638 3600.00000 0 -18453130.207 17338652.151 3127551.870 10 0 60638 4500.00000 0 -17975393.147 16990464.453 6262733.909 10 0 60638 5400.00000 0 -17293288.323 16308909.762 9276349.520 10 0 60638 6300.00000 0 -16461875.384 15281125.095 12109938.226 10 0 60638 7200.00000 0 -15539321.838 13906917.743 14708555.139 10 0 60638 8100.00000 0 -14584339.155 12199003.039 17021831.374 10 0 60638 9000.00000 0 -13653615.756 10182710.958 19004944.055 10 0 60638 9900.00000 0 -12799354.693 7895173.308 20619477.722 10 0 60638 10800.00000 0 -12067019.080 5384024.793 21834161.346 10 0 60638 11700.00000 0 -11493379.332 2705671.150 22625467.555 10 0 60638 12600.00000 0 -11104943.506 -76804.625 22978063.293 10 0 60638 13500.00000 0 -10916835.943 -2896012.211 22885103.912 10 0 60638 14400.00000 0 -10932170.744 -5682803.121 22348365.387 10 0 60638 15300.00000 0 -11141946.094 -8368894.676 21378212.259 10 0 60638 16200.00000 0 -11525463.870 -10889461.413 19993401.687 10 0 60638 17100.00000 0 -12051257.185 -13185587.654 18220726.884 10 0 60638 18000.00000 0 -12678487.414 -15206480.504 16094506.080 10 0 60638 18900.00000 0 -13358752.570 -16911352.156 13655925.941 10 0 60638 19800.00000 0 -14038231.608 -18270893.814 10952251.208 10 0 60638 20700.00000 0 -14660074.838 -19268280.141 8035914.945 10 0 60638 21600.00000 0 -15166940.037 -19899662.575 4963506.313 10 0 60638 22500.00000 0 -15503567.231 -20174130.984 1794674.988 10 0 60638 23400.00000 0 -15619283.136 -20113145.380 -1409026.644 10 0 60638 24300.00000 0 -15470328.793 -19749461.722 -4585340.955 10 0 60638 25200.00000 0 -15021911.047 -19125597.196 -7672518.561 10 0 60638 26100.00000 0 -14249889.985 -18291899.964 -10610523.623 10 0 60638 27000.00000 0 -13142029.650 -17304305.149 -13342206.893 10 0 60638 27900.00000 0 -11698757.751 -16221872.244 -15814422.980 10 0 60638 28800.00000 0 -9933400.832 -15104208.349 -17979069.468 10 0 60638 29700.00000 0 -7871883.544 -14008886.483 -19794027.212 10 0 60638 30600.00000 0 -5551903.273 -12988968.265 -21223983.194 10 0 60638 31500.00000 0 -3021613.555 -12090735.768 -22241119.796 10 0 60638 32400.00000 0 -337870.330 -11351728.282 -22825657.094 10 0 60638 33300.00000 0 2435886.579 -10799166.667 -22966237.753 10 0 60638 34200.00000 0 5232029.043 -10448831.539 -22660147.186 10 0 60638 35100.00000 0 7981314.035 -10304442.172 -21913364.890 10 0 60638 36000.00000 0 10615528.201 -10357561.877 -20740446.082 10 0 60638 36900.00000 0 13070093.933 -10588033.331 -19164236.027 10 0 60638 37800.00000 0 15286528.910 -10964924.931 -17215422.676 10 0 60638 38700.00000 0 17214657.177 -11447947.703 -14931936.321 10 0 60638 39600.00000 0 18814480.193 -11989282.351 -12358208.034 10 0 60638 40500.00000 0 20057630.540 -12535738.710 -9544301.415 10 0 60638 41400.00000 0 20928348.489 -13031155.789 -6544934.744 10 0 60638 42300.00000 0 21423941.654 -13418940.376 -3418412.891 10 0 60638 43200.00000 0 21554709.742 -13644636.368 -225490.173 10 0 60638 44100.00000 0 21343338.928 -13658415.691 2971813.285 10 0 60638 45000.00000 0 20823792.662 -13417385.128 6111418.169 10 0 60638 45900.00000 0 20039746.870 -12887611.204 9132391.748 10 0 60638 46800.00000 0 19042636.520 -12045777.389 11976129.124 10 0 60638 47700.00000 0 17889396.636 -10880403.423 14587486.967 10 0 60638 48600.00000 0 16639993.368 -9392575.124 16915847.938 10 0 60638 49500.00000 0 15354849.145 -7596153.596 18916095.629 10 0 60638 50400.00000 0 14092269.971 -5517454.499 20549481.745 10 0 60638 51300.00000 0 12905982.422 -3194410.077 21784369.612 10 0 60638 52200.00000 0 11842882.960 -675247.969 22596840.456 10 0 60638 53100.00000 0 10941093.056 1983259.249 22971151.583 10 0 60638 54000.00000 0 10228400.709 4717902.292 22900038.283 10 0 60638 54900.00000 0 9721152.764 7461415.000 22384854.050 10 0 60638 55800.00000 0 9423643.774 10145028.426 21435546.560 10 0 60638 56700.00000 0 9328026.526 12701094.630 20070469.667 10 0 60638 57600.00000 0 9414747.764 15065672.610 18316034.540 10 0 60638 58500.00000 0 9653490.885 17180970.066 16206205.946 10 0 60638 59400.00000 0 10004586.202 18997540.374 13781852.498 10 0 60638 60300.00000 0 10420829.792 20476143.958 11089962.447 10 0 60638 61200.00000 0 10849634.666 21589196.743 8182739.340 10 0 60638 62100.00000 0 11235423.765 22321745.402 5116594.327 10 0 60638 63000.00000 0 11522163.802 22671928.535 1951054.130 10 0 60638 63900.00000 0 11655932.638 22650904.381 -1252394.248 10 0 60638 64800.00000 0 11587411.101 22282248.014 -4431499.589 10 0 60638 65700.00000 0 11274193.015 21600843.356 -7524459.696 10 0 60638 66600.00000 0 10682814.618 20651316.678 -10471127.623 10 0 60638 67500.00000 0 9790416.244 19486077.817 -13214186.789 10 0 60638 68400.00000 0 8585964.586 18163051.865 -15700271.457 10 0 60638 69300.00000 0 7070982.413 16743197.347 -17881010.117 10 0 60638 70200.00000 0 5259753.457 15287915.775 -19713971.023 10 0 60638 71100.00000 0 3178992.340 13856462.038 -21163491.152 10 0 60638 72000.00000 0 866992.039 12503464.865 -22201372.311 10 0 60638 72900.00000 0 -1627716.610 11276661.767 -22807430.868 10 0 60638 73800.00000 0 -4248138.338 10214943.605 -22969890.510 10 0 60638 74700.00000 0 -6930946.603 9346790.712 -22685610.592 10 0 60638 75600.00000 0 -9608888.171 8689165.826 -21960145.776 10 0 60638 76500.00000 0 -12213359.504 8246909.703 -20807635.975 10 0 60638 77400.00000 0 -14677048.011 8012664.094 -19250528.822 10 0 60638 78300.00000 0 -16936528.547 7967324.423 -17319140.120 10 0 60638 79200.00000 0 -18934707.342 8081002.165 -15051060.840 10 0 60638 80100.00000 0 -20623011.801 8314455.463 -12490422.246 10 0 60638 81000.00000 0 -21963235.315 8620926.610 -9687033.557 10 0 60638 81900.00000 0 -22928960.594 8948307.980 -6695409.096 10 0 60638 82800.00000 0 -23506502.742 9241543.958 -3573704.170 10 0 60638 83700.00000 0 -23695333.515 9445166.582 -382580.785 10 0 60638 84600.00000 0 -23507970.050 9505856.933 2815974.289 10 0 60638 85500.00000 0 -22969333.881 9374923.378 5959855.636 10 0 60639 0.00000 0 -22115608.423 9010591.427 8988045.360 10 0 60639 900.00000 0 -20992643.513 8380007.844 11841797.238 10 0 60639 1800.00000 0 -19653976.152 7460874.591 14465771.737 10 0 60639 2700.00000 0 -18158549.715 6242642.796 16809105.472 10 0 60639 3600.00000 0 -16568228.764 4727216.503 18826390.735 10 0 60639 4500.00000 0 -14945213.310 2929136.024 20478548.391 10 0 60639 5400.00000 0 -13349460.543 875232.498 21733577.779 10 0 60639 6300.00000 0 -11836221.342 -1396232.762 22567170.016 10 0 60639 7200.00000 0 -10453793.708 -3836909.330 22963173.645 10 0 60639 8100.00000 0 -9241586.057 -6390124.553 22913904.342 10 0 60639 9000.00000 0 -8228570.214 -8993004.197 22420293.135 10 0 60639 9900.00000 0 -7432187.842 -11578860.188 21491870.424 10 0 60639 10800.00000 0 -6857755.180 -14079747.724 20146585.935 10 0 60639 11700.00000 0 -6498390.368 -16429086.912 18410467.579 10 0 60639 12600.00000 0 -6335466.066 -18564241.126 16317125.093 10 0 60639 13500.00000 0 -6339568.131 -20428945.712 13907107.129 10 0 60639 14400.00000 0 -6471920.124 -21975486.570 11227123.272 10 0 60639 15300.00000 0 -6686213.737 -23166538.018 8329145.157 10 0 60639 16200.00000 0 -6930768.040 -23976583.222 5269403.351 10 0 60639 17100.00000 0 -7150926.402 -24392857.636 2107298.950 10 0 60639 18000.00000 0 -7291589.548 -24415775.591 -1095749.187 10 0 60639 18900.00000 0 -7299777.144 -24058821.823 -4277499.063 10 0 60639 19800.00000 0 -7127108.812 -23347912.207 -7376098.518 10 0 60639 20700.00000 0 -6732098.550 -22320250.368 -10331292.358 10 0 60639 21600.00000 0 -6082164.285 -21022728.224 -13085599.508 10 0 60639 22500.00000 0 -5155266.206 -19509937.832 -15585436.645 10 0 60639 23400.00000 0 -3941103.167 -17841878.381 -17782165.767 10 0 60639 24300.00000 0 -2441815.186 -16081455.042 -19633044.878 10 0 60639 25200.00000 0 -672160.911 -14291875.038 -21102062.961 10 0 60639 26100.00000 0 1340838.815 -12534050.566 -22160642.848 10 0 60639 27000.00000 0 3558777.673 -10864117.647 -22788198.314 10 0 60639 27900.00000 0 5933225.309 -9331174.892 -22972534.710 10 0 60639 28800.00000 0 8407517.521 -7975336.740 -22710085.473 10 0 60639 29700.00000 0 10918901.245 -6826182.269 -22005980.114 10 0 60639 30600.00000 0 13400945.441 -5901663.880 -20873942.502 10 0 60639 31500.00000 0 15786117.792 -5207520.761 -19336021.490 10 0 60639 32400.00000 0 18008420.095 -4737220.651 -17422159.187 10 0 60639 33300.00000 0 20005972.704 -4472431.187 -15169605.289 10 0 60639 34200.00000 0 21723440.362 -4383999.765 -12622188.885 10 0 60639 35100.00000 0 23114198.388 -4433399.389 -9829462.045 10 0 60639 36000.00000 0 24142148.980 -4574578.274 -6845731.983 10 0 60639 36900.00000 0 24783112.095 -4756133.997 -3729000.978 10 0 60639 37800.00000 0 25025733.220 -4923719.221 -539835.056 10 0 60639 38700.00000 0 24871870.761 -5022576.370 2659816.127 10 0 60639 39600.00000 0 24336447.632 -5000093.246 5807824.743 10 0 60639 40500.00000 0 23446774.227 -4808270.883 8843091.761 10 0 60639 41400.00000 0 22241372.100 -4405998.818 11706731.724 10 0 60639 42300.00000 0 20768348.555 -3761041.288 14343212.232 10 0 60639 43200.00000 0 19083390.955 -2851650.229 16701426.178 10 0 60639 44100.00000 0 17247465.185 -1667736.796 18735676.402 10 0 60639 45000.00000 0 15324314.724 -211551.709 20406554.276 10 0 60639 45900.00000 0 13377864.644 1502154.664 21681696.041 10 0 60639 46800.00000 0 11469638.458 3446500.011 22536403.120 10 0 60639 47700.00000 0 9656294.784 5583351.118 22954115.257 10 0 60639 48600.00000 0 7987385.571 7864682.701 22926728.034 10 0 60639 49500.00000 0 6503428.202 10234358.782 22454749.101 10 0 60639 50400.00000 0 5234370.743 12630263.875 21547290.260 10 0 60639 51300.00000 0 4198513.312 14986696.826 20221895.404 10 0 60639 52200.00000 0 3401929.650 17236929.127 18504207.150 10 0 60639 53100.00000 0 2838412.392 19315822.454 16427477.876 10 0 60639 54000.00000 0 2489943.802 21162397.389 14031933.731 10 0 60639 54900.00000 0 2327671.891 22722246.943 11364002.917 10 0 60639 55800.00000 0 2313350.682 23949694.417 8475422.317 10 0 60639 56700.00000 0 2401183.873 24809605.425 5422239.013 10 0 60639 57600.00000 0 2539993.941 25278777.997 2263725.538 10 0 60639 58500.00000 0 2675624.830 25346852.005 -938770.283 10 0 60639 59400.00000 0 2753476.169 25016699.220 -4123018.468 10 0 60639 60300.00000 0 2721061.150 24304277.056 -7227119.518 10 0 60639 61200.00000 0 2530478.918 23237951.629 -10190712.380 10 0 60639 62100.00000 0 2140695.731 21857318.273 -12956153.595 10 0 60639 63000.00000 0 1519537.143 20211568.823 -15469644.062 10 0 60639 63900.00000 0 645305.620 18357474.271 -17682280.793 10 0 60639 64800.00000 0 -492046.150 16357067.556 -19551012.768 10 0 60639 65700.00000 0 -1890237.167 14275123.861 -21039481.952 10 0 60639 66600.00000 0 -3534505.210 12176544.213 -22118732.926 10 0 60639 67500.00000 0 -5397986.808 10123752.063 -22767777.382 10 0 60639 68400.00000 0 -7442615.391 8174211.739 -22974002.578 10 0 60639 69300.00000 0 -9620500.978 6378172.381 -22733415.995 10 0 60639 70200.00000 0 -11875734.533 4776731.236 -22050721.619 10 0 60639 71100.00000 0 -14146542.282 3400296.608 -20939226.518 10 0 60639 72000.00000 0 -16367700.426 2267513.888 -19420579.614 10 0 60639 72900.00000 0 -18473109.787 1384698.471 -17524347.790 10 0 60639 73800.00000 0 -20398423.040 745798.061 -15287437.586 10 0 60639 74700.00000 0 -22083614.857 332884.514 -12753373.764 10 0 60639 75600.00000 0 -23475387.591 117153.083 -9971448.872 10 0 60639 76500.00000 0 -24529311.953 60385.484 -6995760.515 10 0 60639 77400.00000 0 -25211613.164 116813.712 -3884155.353 10 0 60639 78300.00000 0 -25500528.030 235304.566 -697100.785 10 0 60639 79200.00000 0 -25387176.426 361771.409 2503493.325 10 0 60639 80100.00000 0 -24875911.168 441710.218 5655479.437 10 0 60639 81000.00000 0 -23984132.224 422751.830 8697679.818 10 0 60639 81900.00000 0 -22741573.757 257121.907 11571072.988 10 0 60639 82800.00000 0 -21189094.536 -96095.816 14219935.972 10 0 60639 83700.00000 0 -19377022.964 -668988.819 16592920.351 10 0 60639 84600.00000 0 -17363126.324 -1483221.000 18644041.684 10 0 60639 85500.00000 0 -15210289.276 -2548881.187 20333563.705 99